Location: Newark
(44.1667°N, 8.2500°E)
Time: 02:02:29
(UTC+00:00)

Tiros 1 despin weight - All Passes

Search period start: 13 December 2019 00:00
Search period end: 23 December 2019 00:00
Orbit: 594 x 642 km, 48.2° (Epoch: 12 December)

Date Brightness Start Highest point End Pass type
(mag) Time Alt. Az. Time Alt. Az. Time Alt. Az.
13 Dec - 02:18:54 10° S 02:22:13 20° SE 02:25:31 10° E visible
13 Dec - 03:58:45 10° WSW 04:03:18 77° SSE 04:07:48 10° ENE visible
13 Dec - 05:40:38 10° W 05:45:03 52° N 05:49:26 10° ENE visible
13 Dec - 07:22:35 10° WNW 07:27:02 61° NNE 07:31:25 10° E daylight
13 Dec - 09:04:17 10° WNW 09:08:34 48° SSW 09:12:48 10° SE daylight
13 Dec - 10:49:07 10° SW 10:49:17 10° SW 10:49:28 10° SW daylight
14 Dec - 02:34:21 10° SSW 02:38:31 35° SE 02:42:38 10° ENE visible
14 Dec - 04:15:20 10° WSW 04:19:53 74° NNW 04:24:23 10° ENE visible
14 Dec - 05:57:25 10° WNW 06:01:49 50° N 06:06:09 10° ENE visible
14 Dec - 07:39:11 10° WNW 07:43:41 83° NNE 07:48:07 10° ESE daylight
14 Dec - 09:21:08 10° W 09:24:55 28° SW 09:28:41 10° SSE daylight
15 Dec - 01:11:40 10° SSE 01:14:01 14° SE 01:16:22 10° ESE night (unlit)
15 Dec - 02:50:25 10° SW 02:54:55 59° SSE 02:59:23 10° ENE visible
15 Dec - 04:32:04 10° W 04:36:34 57° N 04:41:00 10° ENE visible
15 Dec - 06:14:07 10° WNW 06:18:33 54° N 06:22:56 10° E visible
15 Dec - 07:55:48 10° WNW 08:00:14 65° SSW 08:04:37 10° SE daylight
15 Dec - 09:38:34 10° W 09:41:09 15° SW 09:43:42 10° S daylight
16 Dec - 01:26:27 10° SSW 01:30:14 25° SE 01:34:00 10° E night (unlit)
16 Dec - 03:06:52 10° WSW 03:11:27 89° NNW 03:15:59 10° ENE visible
16 Dec - 04:48:52 10° W 04:53:18 50° N 04:57:40 10° ENE visible
16 Dec - 06:30:45 10° WNW 06:35:15 69° NNE 06:39:41 10° E daylight
16 Dec - 08:12:31 10° WNW 08:16:40 38° SW 08:20:46 10° SSE daylight
17 Dec - 01:42:12 10° SW 01:46:35 44° SE 01:50:55 10° ENE night (unlit)
17 Dec - 03:23:31 10° W 03:28:05 65° NNW 03:32:34 10° ENE visible
17 Dec - 05:05:37 10° WNW 05:10:03 51° N 05:14:25 10° E visible
17 Dec - 06:47:20 10° WNW 06:51:52 85° SSW 06:56:18 10° ESE daylight
17 Dec - 08:29:32 10° W 08:32:58 22° SW 08:36:21 10° S daylight
18 Dec - 00:18:51 10° S 00:22:01 18° SE 00:25:10 10° E night (unlit)
18 Dec - 01:58:27 10° WSW 02:03:03 72° SSE 02:07:35 10° ENE night (unlit)
18 Dec - 03:40:18 10° W 03:44:47 53° N 03:49:13 10° ENE visible
18 Dec - 05:22:17 10° WNW 05:26:47 59° NNE 05:31:12 10° E visible
18 Dec - 07:03:59 10° WNW 07:08:22 53° SSW 07:12:40 10° SE daylight
18 Dec - 08:47:41 10° WSW 08:49:07 11° SW 08:50:35 10° SSW daylight
19 Dec - 00:34:10 10° SSW 00:38:17 32° SE 00:42:21 10° E night (unlit)
19 Dec - 02:15:01 10° WSW 02:19:38 78° NNW 02:24:11 10° ENE visible
19 Dec - 03:57:04 10° WNW 04:01:32 50° N 04:05:55 10° ENE visible
19 Dec - 05:38:54 10° WNW 05:43:27 78° NNE 05:47:55 10° ESE visible
19 Dec - 07:20:48 10° W 07:24:44 30° SW 07:28:37 10° SSE daylight
19 Dec - 23:11:47 10° SSE 23:13:49 13° SE 23:15:50 10° ESE night (unlit)
20 Dec - 00:50:09 10° SW 00:54:40 55° SSE 00:59:09 10° ENE night (unlit)
20 Dec - 02:31:44 10° W 02:36:17 59° NNW 02:40:47 10° ENE visible
20 Dec - 04:13:48 10° WNW 04:18:17 54° N 04:22:42 10° E visible
20 Dec - 05:55:30 10° WNW 06:00:00 71° SSW 06:04:26 10° SE visible
20 Dec - 07:38:05 10° W 07:40:59 17° SW 07:43:51 10° S daylight
20 Dec - 23:26:19 10° SSW 23:30:01 24° SE 23:33:41 10° E night (unlit)
21 Dec - 01:06:32 10° WSW 01:11:11 86° SSE 01:15:46 10° ENE night (unlit)
21 Dec - 02:48:31 10° W 02:53:01 51° N 02:57:26 10° ENE visible
21 Dec - 04:30:27 10° WNW 04:34:59 66° NNE 04:39:27 10° E visible
21 Dec - 06:12:11 10° WNW 06:16:27 42° SW 06:20:39 10° SE visible
21 Dec - 23:41:58 10° SW 23:46:20 41° SE 23:50:39 10° ENE night (unlit)
22 Dec - 01:23:10 10° W 01:27:48 68° NNW 01:32:22 10° ENE night (unlit)
22 Dec - 03:05:17 10° WNW 03:09:46 51° N 03:14:11 10° E visible
22 Dec - 04:47:03 10° WNW 04:51:37 89° SW 04:56:07 10° ESE visible
22 Dec - 06:29:08 10° W 06:32:47 24° SW 06:36:22 10° SSE daylight
22 Dec - 22:18:48 10° S 22:21:47 17° SE 22:24:45 10° E night (unlit)
